Regional Weather Roundup
Issued by NWS San Angelo, TX

Home | Current Version | Previous Version | Text Only | Print | Product List | Glossary On
Versions: 1 2 3 4 5 6 7 8 9 10 11 12 13 14 15 16 17 18 19 20 21 22 23 24 25 26 27 28 29 30 31 32 33 34 35 36 37 38 39 40 41 42 43 44 45 46 47 48 49 50
000
ASUS44 KSJT 272310
RWRSJT
WEST CENTRAL TEXAS REGIONAL WEATHER ROUNDUP
NATIONAL WEATHER SERVICE SAN ANGELO TX
600 PM CDT WED AUG 27 2014

NOTE: "FAIR" INDICATES FEW OR NO CLOUDS BELOW 12,000 FEET WITH NO
SIGNIFICANT WEATHER AND/OR OBSTRUCTIONS TO VISIBILITY.

TXZ049-054-064>066-071>073-076>078-098-099-113-114-127-128-139-140-
154-155-168>170-280000
...LOCATIONS ACROSS WEST CENTRAL TEXAS...

CITY           SKY/WX    TMP DP  RH WIND       PRES   REMARKS
SAN ANGELO     SUNNY     95  62  33 E13       29.97F
ABILENE        MOSUNNY   96  58  27 SE13      29.97F
DYESS AFB      MOSUNNY   93  61  33 S7        29.96F
JUNCTION       SUNNY     96  60  30 NE7       29.97F
SWEETWATER     MOSUNNY   91  60  35 SE9       30.04F
BROWNWOOD      MOSUNNY   95  59  30 SE15      29.96F
COLEMAN        CLEAR     95  58  28 SE8       29.98S
SONORA         MOSUNNY   91  61  35 NE9       30.03F
OZONA          FAIR      95  54  24 E7        30.02S
BRADY          MOSUNNY   91  61  35 E8        29.98F
$$

TEXAS PANHANDLE/OKLAHOMA PANHANDLE

CITY           SKY/WX    TMP DP  RH WIND       PRES   REMARKS
AMARILLO       PTSUNNY   80  65  59 E14       30.06S
BORGER         LGT RAIN  73  64  73 S9        30.06S
CANADIAN       CLOUDY    76  70  81 SE14G21   30.00F
DALHART        MOSUNNY   88  57  34 S17       30.06F
DUMAS          PTCLDY    82  63  52 SE10      30.06F
GUYMON         NOT AVBL
HEREFORD       CLEAR     90  56  30 S18       30.07F
PAMPA          CLOUDY    75  62  62 E5        30.08R THUNDER
PERRYTON       CLOUDY    79  70  74 S40       30.05R
$$

SOUTHERN PANHANDLE/SOUTH PLAINS/ROLLING PLAINS

CITY           SKY/WX    TMP DP  RH WIND       PRES   REMARKS
LUBBOCK        PTSUNNY   91  54  28 S7        30.05S
SNYDER         MOSUNNY   94  61  32 SE14G21   30.00F
CHILDRESS      CLOUDY    83  68  60 E10G18    30.00F
SEMINOLE       MOCLDY    90  52  26 S5        30.07F
$$

PERMIAN BASIN

CITY           SKY/WX    TMP DP  RH WIND       PRES   REMARKS
MIDLAND        PTSUNNY   93  56  28 SE8       30.01F
ODESSA         PTSUNNY   94  53  25 SE9       30.03F
WINK           MOSUNNY   96  51  21 VRB3      29.99F
$$

FAR WEST/SOUTHWEST MOUNTAINS/TRANS PECOS

CITY           SKY/WX    TMP DP  RH WIND       PRES   REMARKS
ALPINE         MOCLDY    88  49  26 NE8       30.18F
DRYDEN           N/A    100  57  23 E10       29.95F
EL PASO        PTSUNNY   85  60  42 N9        30.10F
FORT STOCKTON  SUNNY     95  50  21 CALM      30.02F
GUADALUPE PASS PTSUNNY   81  55  40 MISG      30.23F
MARFA          PTSUNNY   84  52  32 N14       30.19S
PECOS          CLEAR     95  52  22 SW6       29.99F
$$

DALLAS/FORT WORTH METROPLEX

CITY           SKY/WX    TMP DP  RH WIND       PRES   REMARKS
DFW AIRPORT    MOSUNNY   92  65  40 E10       29.95F
FTW MEACHAM    SUNNY     95  64  35 E14       29.95F
DAL-EXECUTIVE  SUNNY     95  63  34 E15       29.96F
GRAND PRAIRIE  SUNNY     93  61  33 NE10G16   29.97F
ADDISON        MOSUNNY   93  64  38 E7        29.97F
MESQUITE       CLEAR     93  59  31 E8        29.96F
LANCASTER      PTCLDY    92  59  32 E12       29.96F
$$

NORTH CENTRAL TEXAS

CITY           SKY/WX    TMP DP  RH WIND       PRES   REMARKS
SHRMAN/DENISON CLEAR     93  62  35 E8        29.99S
GAINESVILLE    SUNNY     89  66  47 E10       29.99S
BRIDGEPORT     MOCLDY    95  57  28 SE9       29.98S
DENTON         MOSUNNY   93  65  39 E12       29.95F
WAXAHACHIE     PTCLDY    92  58  31 E7        29.97F
GRANBURY       CLEAR     95  62  32 SE9G16    29.97S
$$

WESTERN NORTH TEXAS

CITY           SKY/WX    TMP DP  RH WIND       PRES   REMARKS
WICHITA FALLS  MOSUNNY   97  62  31 SE13      29.94F
VERNON         PTCLDY    98  56  24 SE10      29.96S
BRECKENRIDGE   CLEAR     97  56  25 SE10      29.94F HAZE
COMANCHE         N/A     94  59  30 SE10      29.97F
$$

CENTRAL AND SOUTH CENTRAL TEXAS

CITY           SKY/WX    TMP DP  RH WIND       PRES   REMARKS
AUSTIN/BERGSTM MOSUNNY   96  56  26 E9        29.92F
WACO           SUNNY     95  61  32 E12       29.94F
HILLSBORO      CLEAR     94  60  32 E8        29.96F
TEMPLE         SUNNY     95  59  30 E13G21    29.95S
KILLEEN-GRAY   MOSUNNY   93  61  33 NE9       29.95F
FORT HOOD      MOSUNNY   96  60  30 E8        29.95F
GEORGETOWN     SUNNY     97  57  26 E12       29.93
LAGO VISTA     FAIR      95  57  28 NE6       29.97F
SAN MARCOS     SUNNY     97  55  24 NE13      29.93F
NEW BRAUNFELS  SUNNY     97  53  22 E14       29.91F
RANDOLPH AFB   SUNNY     97  56  25 NE10G17   29.93S
SAN ANTONIO    MOSUNNY   96  59  29 E10       29.92F
STINSON        MOSUNNY   98  59  27 E8        29.89F
PLEASANTON     NOT AVBL
LA GRANGE      SUNNY     95  66  39 E7        29.90F
GIDDINGS       MOCLDY    95  57  27 E9        29.96F
$$

EAST TEXAS

CITY           SKY/WX    TMP DP  RH WIND       PRES   REMARKS
PARIS          MOSUNNY   91  64  40 E8        29.99F
CLARKSVILLE    PTCLDY    93  62  35 E9        29.99S
TYLER          SUNNY     94  51  23 E10       29.97F
LONGVIEW       SUNNY     93  60  33 E5        29.96F
PALESTINE      CLEAR     93  60  33 E6        29.97F
NACOGDOCHES    MOSUNNY   91  64  40 E7        29.96F
$$

TEXAS HILL COUNTRY AND EDWARDS PLATEAU

CITY           SKY/WX    TMP DP  RH WIND       PRES   REMARKS
LLANO          PTCLDY    97  63  32 SE6       29.98F
HORSESHOE BAY  FAIR      94  59  31 E5        29.96S
KERRVILLE      MOSUNNY   92  64  39 SE3       29.98S
FREDERICKSBRG  MOSUNNY   90  59  35 E5        29.99S
ROCKSPRINGS    CLEAR     91  64  40 SE8       30.03F
HONDO            N/A    N/A N/A N/A MISG      29.94F
UVALDE         CLEAR     96  64  34 E7        29.93S
DEL RIO        SUNNY    100  62  28 SE9       29.90F
$$

SOUTHEAST TEXAS

CITY           SKY/WX    TMP DP  RH WIND       PRES   REMARKS
COLLEGE STN    MOSUNNY   94  64  37 E12       29.93S
CALDWELL       CLEAR     95  54  24 CALM      29.95F
CROCKETT       CLEAR     93  70  46 E6        29.98F
BRENHAM        SUNNY     93  64  38 E7        29.93S
HUNTSVILLE     MOSUNNY   93  66  40 CALM      29.94F
CONROE         PTSUNNY   89  71  55 SE15      29.94F
HOUSTON BUSH   PTSUNNY   84  73  70 SE9       29.94F
HOUSTON HOBBY  PTSUNNY   86  73  65 NE12      29.93F
PERLAND        PTSUNNY   87  72  60 E13G26    29.94F
WHARTON        MOCLDY    83  75  75 NE5       29.93F
$$

THE UPPER TEXAS COAST

CITY           SKY/WX    TMP DP  RH WIND       PRES   REMARKS
ORANGE         MOCLDY    86  71  60 E5        29.96S
PORT ARTHUR    PTSUNNY   86  73  65 SE10      29.94S
GALVESTON      MOSUNNY   86  77  74 E14       29.94S
ANGLETON       MOSUNNY   86  74  67 E13       29.92F
BAY CITY       PTCLDY    89  74  60 NE12      29.92S
$$

TEXAS COASTAL BEND, RIO GRANDE PLAINS DEEP SOUTH TEXAS

CITY           SKY/WX    TMP DP  RH WIND       PRES   REMARKS
VICTORIA       PTSUNNY   92  71  50 E10       29.91S
BEEVILLE       FAIR      96  68  39 E13G22    29.89R
ROCKPORT       SUNNY     89  75  63 E17       29.89R
PORT ARANSAS   CLEAR     85  74  69 NE16G25   29.88S
PORT LAVACA    MOCLDY    84  74  71 E20       29.91S
CORPUS CHRISTI MOSUNNY   93  71  48 NE17G30   29.87F
KINGSVILLE NAS PTSUNNY   93  73  52 E20G26    29.87S
COTULLA        MOSUNNY   99  60  27 NE13      29.89F
LAREDO         MOSUNNY  101  62  27 E13       29.90F
BROWNSVILLE    SUNNY     93  72  50 NE15G22   29.85S
PORT ISABEL    SUNNY     91  72  53 N20G28    29.85S
HEBBRONVILLE   PTCLDY    97  57  26 N10G18    29.88F
MCALLEN        MOSUNNY   98  68  37 NE12G17   29.84F
WESLACO        PTSUNNY   95  67  39 E12       29.84S
FALFURRIAS     PTCLDY    99  65  32 NE14G22   29.85S
EDINBURG       PTCLDY    99  66  33 NE13      29.84S
$$


USA.gov is the U.S. government's official web portal to all federal, state and local government web resources and services.